Back to catalog

SL-6 R/B

AliveSSO
NORAD 23753·ROCKET BODY·🇷🇺 Russia

Launched Dec 28, 1995 from Baikonur Cosmodrome

Loading…

Next Passes (next 24 hours)

TLE

FreshSource: Space-Track

Epoch: Sep 14, 2026, 10:11 UTC

1 23753U 95072C   26257.42473543  .00000038  00000-0  33608-4 0  9992
2 23753  98.6978 327.6095 0003703 173.5151 186.6078 14.27044493598643

Track SL-6 R/B in real time with AllMySat

Download on the App Store